Date String (YYYY-MM-DD hh:mm:ss) UTC,Instrument flags,Ambient pressure (hPa),Sample flow (lpm),Bypass flow (lpm),Sample temperature (°C),Ambient temperature (°C),ASC tube jacket temperature (°C),LED temperature (°C),Box temperature (°C),Sample RH (%),Span deviation,Mass concentration (μg/m³),Mass concentration (μg/m³),Mass concentration (μg/m³)
DateTimeUTC,F1_M11,P_M11,Q1_M11,Q2_M11,T1_M11,T2_M11,T3_M11,T4_M11,T5_M11,U1_M11,ZSPAN_M11,X0_M11,X2_M11,X1_M11
2022-12-21 17:00:00,,0817.0,4.97,0.00,22.1,21.4,00.0,30.9,23.9,07.8,0000.0,0003.45,0000.85,0000.44
2022-12-21 17:01:00,,0817.0,5.04,0.00,22.2,22.4,00.0,30.9,24.3,07.7,0000.0,0003.51,0000.90,0000.45
2022-12-21 17:02:00,,0817.1,4.96,0.00,22.3,22.5,00.0,31.0,24.4,07.7,0000.0,0002.68,0000.89,0000.45
2022-12-21 17:03:00,,0817.3,5.04,0.00,22.4,22.2,00.0,31.0,24.3,07.7,0000.0,0002.72,0000.87,0000.45
2022-12-21 17:04:00,,0817.0,4.97,0.00,22.4,21.8,00.0,31.0,24.2,07.8,0000.0,0003.35,0000.90,0000.45
2022-12-21 17:05:00,,0817.1,5.00,0.00,22.3,21.4,00.0,31.1,24.1,07.8,0000.0,0004.82,0000.95,0000.46
2022-12-21 17:06:00,,0816.9,5.04,0.00,22.3,21.1,00.0,31.1,24.0,07.8,0000.0,0005.57,0000.99,0000.47
2022-12-21 17:07:00,,0817.2,5.00,0.00,22.3,20.8,00.0,31.1,23.9,07.8,0000.0,0005.28,0000.97,0000.48
2022-12-21 17:08:00,,0817.2,4.95,0.00,22.2,20.7,00.0,31.0,23.8,07.9,0000.0,0005.24,0000.96,0000.49
2022-12-21 17:09:00,,0817.3,5.00,0.00,22.2,20.6,00.0,31.0,23.8,08.0,0000.0,0005.17,0000.94,0000.48
2022-12-21 17:10:00,,0817.3,5.02,0.00,22.1,20.5,00.0,31.0,23.7,08.0,0000.0,0005.12,0000.93,0000.49
2022-12-21 17:11:00,,0817.4,5.01,0.00,22.1,20.4,00.0,31.0,23.7,08.0,0000.0,0005.01,0000.87,0000.48
2022-12-21 17:12:00,,0817.2,4.97,0.00,22.1,20.4,00.0,31.0,23.7,08.1,0000.0,0004.99,0000.85,0000.47
2022-12-21 17:13:00,,0817.1,4.99,0.00,22.0,20.4,00.0,31.0,23.7,08.2,0000.0,0005.90,0000.85,0000.48
2022-12-21 17:14:00,,0817.1,5.02,0.00,22.0,20.4,00.0,31.0,23.6,08.1,0000.0,0005.97,0000.85,0000.48
2022-12-21 17:15:00,,0817.2,5.03,0.00,22.0,20.8,00.0,30.9,23.7,08.2,0000.0,0005.55,0000.86,0000.49
2022-12-21 17:16:00,,0817.3,4.96,0.00,22.1,22.0,00.0,30.9,24.1,08.1,0000.0,0005.03,0000.91,0000.49
2022-12-21 17:17:00,,0817.3,5.04,0.00,22.3,22.7,00.0,31.0,24.3,08.1,0000.0,0005.02,0000.94,0000.50
2022-12-21 17:18:00,,0817.2,4.96,0.00,22.3,22.5,00.0,31.0,24.3,08.0,0000.0,0004.31,0000.91,0000.50
2022-12-21 17:19:00,,0817.2,5.03,0.00,22.4,22.1,00.0,31.1,24.3,08.1,0000.0,0004.33,0000.93,0000.50
2022-12-21 17:20:00,,0817.1,5.03,0.00,22.4,21.7,00.0,31.1,24.2,08.0,0000.0,0004.34,0000.92,0000.50
2022-12-21 17:21:00,,0817.2,4.95,0.00,22.4,21.4,00.0,31.1,24.1,08.1,0000.0,0004.33,0000.89,0000.49
2022-12-21 17:22:00,,0817.1,5.03,0.00,22.3,21.2,00.0,31.1,24.0,08.1,0000.0,0006.12,0000.91,0000.50
2022-12-21 17:23:00,,0817.3,5.02,0.00,22.3,21.0,00.0,31.1,24.0,08.1,0000.0,0007.30,0000.91,0000.51
2022-12-21 17:24:00,,0817.3,4.95,0.00,22.3,20.9,00.0,31.1,23.9,08.2,0000.0,0006.31,0000.89,0000.51
2022-12-21 17:25:00,,0817.1,5.01,0.00,22.3,20.8,00.0,31.1,23.9,08.2,0000.0,0006.11,0000.90,0000.53
2022-12-21 17:26:00,,0817.0,5.02,0.00,22.2,20.7,00.0,31.1,23.8,08.2,0000.0,0006.20,0000.88,0000.53
2022-12-21 17:27:00,,0817.1,5.00,0.00,22.2,20.5,00.0,31.1,23.8,08.2,0000.0,0005.52,0000.89,0000.53
2022-12-21 17:28:00,,0817.1,4.96,0.00,22.1,20.4,00.0,31.1,23.7,08.1,0000.0,0004.84,0000.88,0000.53
2022-12-21 17:29:00,,0817.0,5.01,0.00,22.1,20.4,00.0,31.0,23.7,08.2,0000.0,0004.99,0000.90,0000.55
2022-12-21 17:30:00,,0817.0,5.02,0.00,22.1,20.3,00.0,31.0,23.6,08.2,0000.0,0005.18,0000.93,0000.55
2022-12-21 17:31:00,,0817.0,5.03,0.00,22.0,20.8,00.0,31.0,23.7,08.2,0000.0,0005.16,0000.92,0000.56
2022-12-21 17:32:00,,0817.0,4.97,0.00,22.2,22.1,00.0,31.0,24.1,08.2,0000.0,0005.20,0000.95,0000.57
2022-12-21 17:33:00,,0816.9,5.03,0.00,22.3,23.0,00.0,31.0,24.4,08.2,0000.0,0004.22,0000.94,0000.57
2022-12-21 17:34:00,,0816.9,4.97,0.00,22.4,22.7,00.0,31.1,24.4,08.0,0000.0,0002.30,0000.95,0000.58
2022-12-21 17:35:00,,0816.9,5.03,0.00,22.4,22.3,00.0,31.1,24.4,07.9,0000.0,0002.34,0000.98,0000.59
2022-12-21 17:36:00,,0816.9,4.95,0.00,22.4,21.9,00.0,31.1,24.3,08.0,0000.0,0002.38,0001.00,0000.59
2022-12-21 17:37:00,,0816.9,5.03,0.00,22.4,21.6,00.0,31.2,24.2,08.0,0000.0,0002.25,0000.99,0000.59
2022-12-21 17:38:00,,0817.1,5.01,0.00,22.4,21.4,00.0,31.2,24.1,08.0,0000.0,0002.02,0000.97,0000.59
2022-12-21 17:39:00,,0817.0,4.95,0.00,22.4,21.2,00.0,31.2,24.1,08.1,0000.0,0001.98,0000.91,0000.58
2022-12-21 17:40:00,,0816.9,5.03,0.00,22.4,21.1,00.0,31.2,24.0,08.1,0000.0,0001.96,0000.91,0000.58
2022-12-21 17:41:00,,0817.0,5.02,0.00,22.3,21.0,00.0,31.2,23.9,08.1,0000.0,0001.71,0000.89,0000.59
2022-12-21 17:42:00,,0816.9,4.99,0.00,22.3,21.0,00.0,31.2,23.9,08.1,0000.0,0001.92,0000.91,0000.59
2022-12-21 17:43:00,,0817.0,4.98,0.00,22.3,20.9,00.0,31.2,23.8,08.0,0000.0,0002.39,0000.91,0000.60
2022-12-21 17:44:00,,0817.1,5.02,0.00,22.3,20.8,00.0,31.2,23.7,08.1,0000.0,0002.39,0000.90,0000.59
2022-12-21 17:45:00,,0817.3,5.00,0.00,22.2,20.8,00.0,31.2,23.7,08.1,0000.0,0002.40,0000.92,0000.60
2022-12-21 17:46:00,,0817.2,4.96,0.00,22.2,20.8,00.0,31.2,23.7,08.0,0000.0,0002.33,0000.91,0000.60
2022-12-21 17:47:00,,0817.2,5.02,0.00,22.2,20.8,00.0,31.2,23.7,08.0,0000.0,0002.33,0000.92,0000.59
2022-12-21 17:48:00,,0817.1,5.03,0.00,22.2,20.8,00.0,31.1,23.8,08.0,0000.0,0002.37,0000.94,0000.59
2022-12-21 17:49:00,,0817.0,4.99,0.00,22.2,20.8,00.0,31.1,23.9,08.0,0000.0,0002.29,0000.92,0000.59
2022-12-21 17:50:00,,0817.0,4.97,0.00,22.2,20.8,00.0,31.1,23.9,08.1,0000.0,0002.26,0000.92,0000.60
2022-12-21 17:51:00,,0817.0,5.03,0.00,22.2,20.8,00.0,31.1,23.9,08.0,0000.0,0002.18,0000.90,0000.60
2022-12-21 17:52:00,,0816.9,5.03,0.00,22.2,20.8,00.0,31.1,23.9,08.0,0000.0,0002.23,0000.91,0000.59
2022-12-21 17:53:00,,0817.0,4.96,0.00,22.2,20.8,00.0,31.1,23.9,08.0,0000.0,0002.13,0000.92,0000.59
2022-12-21 17:54:00,,0817.1,5.01,0.00,22.2,20.8,00.0,31.1,23.9,08.1,0000.0,0001.56,0000.91,0000.58
2022-12-21 17:55:00,,0817.2,5.04,0.00,22.2,20.8,00.0,31.1,23.9,08.1,0000.0,0001.58,0000.92,0000.59
2022-12-21 17:56:00,,0817.1,4.97,0.00,22.2,20.8,00.0,31.0,23.9,08.0,0000.0,0001.50,0000.89,0000.59
2022-12-21 17:57:00,,0817.1,4.99,0.00,22.2,20.8,00.0,31.0,23.9,08.1,0000.0,0001.42,0000.86,0000.59
2022-12-21 17:58:00,,0817.3,5.03,0.00,22.2,20.8,00.0,31.0,23.9,08.1,0000.0,0001.45,0000.88,0000.59
2022-12-21 17:59:00,,0817.2,5.01,0.00,22.2,20.8,00.0,31.0,23.9,08.2,0000.0,0001.40,0000.85,0000.58
